Volver al catálogo

FENGYUN 1C DEB

ActivoSSO
NORAD 35108·DEBRIS·🇨🇳 China

Lanzado May 10, 1999 desde Taiyuan Satellite Launch Center

Loading…

Próximos Pases (próximas 24 horas)

TLE

EnvejeciendoSource: Space-Track

Época: Sep 7, 2026, 05:54 UTC

1 35108U 99025DKL 26250.24618026  .00000256  00000-0  16432-3 0  9998
2 35108  98.8146 244.0275 0134288  26.4709 334.3238 14.07192863930147

Sigue FENGYUN 1C DEB en tiempo real con AllMySat

Download on the App Store